Location: Newark
(34.6283°N, 36.0776°E)
Time: 23:30:36
(UTC+00:00)

Tiros 1 despin weight - Pass Details

Date: 26 September 2019
Orbit: 593 x 643 km, 48.2° (Epoch: 22 October)

Event Time Altitude Azimuth Distance (km) Brightness Sun altitude
Rises 05:34:28 0° 193° (SSW) 2,918 ? 25.0°
Reaches altitude 10° 05:37:22 10° 175° (S) 2,007 ? 25.5°
Maximum altitude 05:40:35 19° 131° (SE) 1,507 ? 26.2°
Drops below altitude 10° 05:43:47 10° 86° (E) 1,995 ? 26.8°
Sets 05:46:38 0° 69° (ENE) 2,895 ? 27.3°
